Location: Buckland
(65.9785°N, 161.1281°W)
Time: 22:01:01
(UTC+00:00)

PRISM - Pass Details

Date: 19 January 2021
Orbit: 565 x 584 km, 98.2° (Epoch: 06 March)

Event Time Altitude Azimuth Distance (km) Brightness Sun altitude
Rises 17:46:11 0° 33° (NNE) 2,783 ? -13.4°
Reaches altitude 10° 17:49:41 10° 0° (N) 1,885 ? -13.0°
Maximum altitude 17:51:03 12° 341° (NNW) 1,787 ? -12.9°
Enters shadow 17:51:28 11° 334° (NNW) 1,797 ? -12.9°
